Regional Weather Roundup
Issued by NWS

Home | Current Version | Previous Version | Graphics & Text | Print | Product List | Glossary On
Versions: 1 2 3 4 5 6 7 8 9 10 11 12 13 14 15 16 17 18 19 20 21 22 23 24 25 26 27 28 29 30 31 32 33 34 35 36 37 38 39 40 41 42 43 44 45 46 47 48 49 50
000
ASUS43 KLMK 221510
RWRKY
KENTUCKY REGIONAL WEATHER ROUNDUP
NATIONAL WEATHER SERVICE LOUISVILLE KY
1100 AM EDT FRI AUG 22 2014

NOTE "FAIR" INDICATES FEW OR NO CLOUDS BELOW 12,000 FEET
WITH NO SIGNIFICANT WEATHER AND/OR OBSTRUCTIONS TO VISIBILITY.

KYZ001>023-026-027-061>063-070>075-221600-
WESTERN AND SOUTH CENTRAL KENTUCKY

CITY           SKY/WX    TMP DP  RH WIND       PRES   REMARKS
PADUCAH        MOSUNNY   86  76  71 SW5       30.05S HX  96
HENDERSON      MOSUNNY   82  73  74 W7        30.04S
OWENSBORO      MOSUNNY   84  76  77 W12       30.05S HX  92
HOPKINSVILLE   MOSUNNY   85  76  76 W13       30.09R HX  94
BOWLING GREEN  PTSUNNY   84  73  69 W12       30.08S HX  90
GLASGOW        MOSUNNY   83  73  72 W10       30.09S
$$

KYZ024-025-028>034-038-045-046-053-221600-
NORTH CENTRAL KENTUCKY

CITY           SKY/WX    TMP DP  RH WIND       PRES   REMARKS
LOUISVILLE/SDF CLOUDY    83  74  74 W9        30.04R
LOUISVILLE/LOU CLOUDY    82  73  74 W5        30.04R
FORT KNOX      CLOUDY    83  75  77 SW12      30.05R HX  90
$$

KYZ035>037-039>044-047>052-055>060-089>105-221600-
NORTHEAST KENTUCKY

CITY           SKY/WX    TMP DP  RH WIND       PRES   REMARKS
LEXINGTON      PTSUNNY   84  74  71 SW9       30.06S HX  91
COVINGTON      NOT AVBL
FRANKFORT      PTSUNNY   83  73  72 SW9       30.04S
$$

KYZ054-064>069-076>088-106>120-221600-
SOUTHEAST KENTUCKY

CITY           SKY/WX    TMP DP  RH WIND       PRES   REMARKS
JACKSON        MOSUNNY   80  73  79 CALM      30.10S
LONDON         MOSUNNY   83  72  69 W10       30.11F
SOMERSET       PTSUNNY   82  75  78 W10       30.11S
MIDDLESBORO    PTSUNNY   77  73  86 CALM      30.13S
MONTICELLO     MOSUNNY   85  76  74 W8        30.12S HX  94
$$




USA.gov is the U.S. government's official web portal to all federal, state and local government web resources and services.